Tracking 19795 objects as of 17-Jul-2019
HD Live streaming from Space Station
objects crossing your sky now

OSCAR 14 (UOSAT 3)

Track OSCAR 14 (UOSAT 3) now!
10-day predictions
OSCAR 14 (UOSAT 3) is classified as:


NORAD ID: 20437
Int'l Code: 1990-005B
Perigee: 782.7 km
Apogee: 799.5 km
Inclination: 98.8 °
Period: 100.5 minutes
Semi major axis: 7162 km
RCS: 0.3858 m2 (medium)
Launch date: January 22, 1990
Source: United Kingdom (UK)
Launch site: FRENCH GUIANA (FRGUI)

Uplink (MHz): 145.975
Downlink (MHz): 435.070
Beacon (MHz):
Mode: FM
Call sign:
Status: Inactive

aabbcc
Your satellite tracking list
Your tracking list is empty




NASA's NSSDC Master Catalog

Two Line Element Set (TLE):
1 20437U 90005B   19197.47473587 -.00000018  00000-0  99499-5 0  9997
2 20437  98.7573 154.4021 0011736 103.8175   5.3468 14.32321318539895
Source of the keplerian elements: AFSPC